St. Francis, KS

4:52 AM CDT on July 27, 2017 (GMT -0500)
Cheyenne County Municipal

Weather History for KSYF - June, 2013

Change the Weather History Date:

Sunday, June 9, 2013

  Actual Average Record
Temperature  
Mean Temperature 70 °F -  
Max Temperature 92 °F 83 °F 93 °F (2016)
Min Temperature 49 °F 53 °F 48 °F (2014)
Cooling Degree Days 5    
Growing Degree Days 20 (Base 50)    
Moisture  
Dew Point 41 °F    
Average Humidity 45    
Maximum Humidity 87    
Minimum Humidity 10    
Precipitation  
Precipitation 0.00 in - - ()
Sea Level Pressure  
Sea Level Pressure 29.96 in    
Wind  
Wind Speed 7 mph (SW)    
Max Wind Speed 16 mph    
Max Gust Speed 22 mph    
Visibility 10 miles    
Events      
Averages and records for this station are not official NWS values.
T = Trace of Precipitation, MM = Missing Value Source: NWS Daily Summary

Daily Weather History Graph

Daily Weather History Graph

Search for Another Location

Airport or City:

Trip Planner

Search our weather history database for the weather conditions in past years. The results will help you decide how hot, cold, wet, or windy it might be!

Date:

Astronomy

Jun. 09, 2013 Rise Set
Actual Time 6:18 AM CDT 9:14 PM CDT
Civil Twilight 5:46 AM CDT 9:46 PM CDT
Nautical Twilight 5:05 AM CDT 10:27 PM CDT
Astronomical Twilight 4:18 AM CDT 11:15 PM CDT
Moon 7:16 AM CDT (6/9) 10:02 PM CDT (6/9)
Length of Visible Light 16h 00m
Length of Day
14h 55m
New Moon, 1% of the Moon is Illuminated
Jun 9
New Moon
Jun 16
First Quarter
Jun 23
Full
Jun 29
Last Quarter
Jul 8
New

Hourly Weather History & Observations

Time (CDT) Temp. Dew Point Humidity Pressure Visibility Wind Dir Wind Speed Gust Speed Precip Events Conditions
12:15 AM 55.4 °F 48.2 °F 77% 29.99 in 10.0 mi SSW 3.5 mph - N/A   Clear
12:35 AM 55.0 °F 47.1 °F 75% 29.99 in 10.0 mi Calm Calm - N/A   Clear
12:55 AM 52.9 °F 47.5 °F 82% 29.99 in 10.0 mi WSW 6.9 mph - N/A   Clear
1:15 AM 53.2 °F 47.7 °F 81% 29.99 in 10.0 mi SW 3.5 mph - N/A   Clear
1:35 AM 52.7 °F 46.8 °F 80% 29.98 in 10.0 mi SW 3.5 mph - N/A   Clear
1:55 AM 53.4 °F 47.5 °F 80% 29.99 in 10.0 mi SW 6.9 mph - N/A   Clear
2:15 AM 52.9 °F 46.8 °F 80% 29.99 in 10.0 mi SW 5.8 mph - N/A   Clear
2:35 AM 52.2 °F 46.9 °F 82% 29.99 in 10.0 mi WSW 9.2 mph - N/A   Clear
2:55 AM 52.0 °F 46.8 °F 82% 29.99 in 10.0 mi SW 5.8 mph - N/A   Clear
3:15 AM 52.2 °F 46.9 °F 82% 29.99 in 10.0 mi WSW 6.9 mph - N/A   Clear
3:35 AM 51.8 °F 46.4 °F 82% 29.99 in 10.0 mi WSW 8.1 mph - N/A   Clear
3:55 AM 51.1 °F 46.4 °F 84% 30.00 in 10.0 mi SW 9.2 mph - N/A   Clear
4:15 AM 50.9 °F 46.4 °F 85% 29.99 in 10.0 mi WSW 6.9 mph - N/A   Clear
4:35 AM 50.9 °F 46.2 °F 84% 29.99 in 10.0 mi SSW 4.6 mph - N/A   Clear
4:55 AM 49.8 °F 45.7 °F 86% 29.99 in 10.0 mi SW 5.8 mph - N/A   Clear
5:15 AM 49.1 °F 45.0 °F 86% 29.99 in 10.0 mi SW 8.1 mph - N/A   Clear
5:35 AM 50.5 °F 46.4 °F 86% 29.99 in 10.0 mi SW 9.2 mph - N/A   Clear
5:55 AM 50.0 °F 45.7 °F 85% 29.99 in 10.0 mi SW 8.1 mph - N/A   Clear
6:15 AM 49.5 °F 45.9 °F 87% 29.99 in 10.0 mi SW 10.4 mph - N/A   Clear
6:35 AM 52.0 °F 47.5 °F 85% 30.00 in 10.0 mi WSW 12.7 mph - N/A   Clear
6:55 AM 51.1 °F 47.3 °F 87% 30.00 in 10.0 mi SW 11.5 mph - N/A   Clear
7:15 AM 54.0 °F 48.7 °F 82% 30.00 in 10.0 mi SW 11.5 mph - N/A   Clear
7:35 AM 55.9 °F 49.6 °F 79% 30.00 in 10.0 mi SW 11.5 mph - N/A   Clear
7:55 AM 58.3 °F 50.0 °F 74% 30.00 in 10.0 mi SW 13.8 mph - N/A   Clear
8:15 AM 60.6 °F 50.0 °F 68% 29.99 in 10.0 mi SW 11.5 mph - N/A   Clear
8:35 AM 63.3 °F 50.0 °F 62% 29.99 in 10.0 mi WSW 11.5 mph - N/A   Clear
8:55 AM 65.1 °F 50.0 °F 58% 30.00 in 10.0 mi WSW 11.5 mph - N/A   Clear
9:15 AM 68.0 °F 50.4 °F 53% 30.00 in 10.0 mi WSW 11.5 mph - N/A   Clear
9:35 AM 71.6 °F 51.1 °F 48% 30.00 in 10.0 mi WSW 10.4 mph - N/A   Clear
9:55 AM 76.3 °F 48.4 °F 37% 30.00 in 10.0 mi WSW 10.4 mph - N/A   Clear
10:15 AM 79.0 °F 43.5 °F 28% 30.00 in 10.0 mi WSW 12.7 mph 16.1 mph N/A   Clear
10:35 AM 79.7 °F 38.3 °F 23% 30.00 in 10.0 mi West 11.5 mph 16.1 mph N/A   Clear
10:55 AM 81.0 °F 35.8 °F 20% 30.00 in 10.0 mi West 5.8 mph - N/A   Clear
11:15 AM 81.1 °F 35.8 °F 20% 30.00 in 10.0 mi WNW 9.2 mph - N/A   Clear
11:35 AM 82.4 °F 36.9 °F 20% 30.00 in 10.0 mi West 8.1 mph 21.9 mph N/A   Clear
11:55 AM 83.5 °F 38.5 °F 20% 30.00 in 10.0 mi West 8.1 mph - N/A   Clear
12:15 PM 83.5 °F 37.8 °F 20% 30.00 in 10.0 mi NW 8.1 mph - N/A   Clear
12:35 PM 84.2 °F 36.3 °F 18% 29.99 in 10.0 mi NNW 4.6 mph 16.1 mph N/A   Clear
12:55 PM 84.9 °F 36.3 °F 18% 29.99 in 10.0 mi West 4.6 mph 17.3 mph N/A   Clear
1:15 PM 85.6 °F 36.5 °F 17% 29.98 in 10.0 mi WNW 4.6 mph 16.1 mph N/A   Clear
1:35 PM 85.3 °F 36.0 °F 17% 29.97 in 10.0 mi Calm Calm - N/A   Clear
1:55 PM 86.4 °F 36.0 °F 17% 29.97 in 10.0 mi West 4.6 mph - N/A   Clear
2:15 PM 85.5 °F 35.8 °F 17% 29.96 in 10.0 mi SSW 5.8 mph - N/A   Clear
2:35 PM 87.4 °F 34.3 °F 15% 29.96 in 10.0 mi SSW 4.6 mph 16.1 mph N/A   Scattered Clouds
2:55 PM 87.6 °F 34.5 °F 15% 29.95 in 10.0 mi SW 10.4 mph - N/A   Scattered Clouds
3:15 PM 87.8 °F 33.3 °F 14% 29.94 in 10.0 mi West 3.5 mph - N/A   Scattered Clouds
3:35 PM 89.4 °F 34.3 °F 14% 29.94 in 10.0 mi SSW 9.2 mph - N/A   Clear
3:55 PM 90.9 °F 32.0 °F 12% 29.93 in 10.0 mi NW 5.8 mph - N/A   Scattered Clouds
4:15 PM 90.7 °F 32.5 °F 13% 29.92 in 10.0 mi Calm Calm - N/A   Scattered Clouds
4:35 PM 90.0 °F 32.0 °F 13% 29.92 in 10.0 mi Calm Calm - N/A   Clear
4:55 PM 91.2 °F 28.9 °F 11% 29.92 in 10.0 mi West 10.4 mph - N/A   Clear
5:15 PM 91.2 °F 30.0 °F 11% 29.91 in 10.0 mi WNW 4.6 mph - N/A   Clear
5:35 PM 91.6 °F 29.3 °F 11% 29.90 in 10.0 mi SSW 4.6 mph - N/A   Clear
5:55 PM 90.9 °F 30.4 °F 12% 29.91 in 10.0 mi SW 4.6 mph - N/A   Clear
6:15 PM 90.7 °F 29.1 °F 11% 29.90 in 10.0 mi NNE 3.5 mph - N/A   Clear
6:35 PM 91.0 °F 28.2 °F 11% 29.90 in 10.0 mi NE 4.6 mph - N/A   Clear
6:55 PM 91.6 °F 27.7 °F 10% 29.89 in 10.0 mi Calm Calm - N/A   Clear
7:15 PM 90.5 °F 27.5 °F 10% 29.89 in 10.0 mi Calm Calm - N/A   Clear
7:35 PM 90.0 °F 29.3 °F 11% 29.89 in 10.0 mi East 3.5 mph - N/A   Clear
7:55 PM 89.2 °F 29.8 °F 12% 29.89 in 10.0 mi SE 3.5 mph - N/A   Clear
8:15 PM 86.9 °F 36.1 °F 16% 29.89 in 10.0 mi ESE 5.8 mph - N/A   Clear
8:35 PM 84.4 °F 40.1 °F 21% 29.89 in 10.0 mi East 9.2 mph - N/A   Clear
8:55 PM 81.5 °F 41.4 °F 24% 29.89 in 10.0 mi East 11.5 mph - N/A   Clear
9:15 PM 76.8 °F 43.7 °F 31% 29.89 in 10.0 mi ESE 10.4 mph - N/A   Clear
9:35 PM 73.6 °F 44.4 °F 35% 29.90 in 10.0 mi ESE 10.4 mph - N/A   Clear
9:55 PM 70.2 °F 46.4 °F 43% 29.90 in 10.0 mi ESE 10.4 mph - N/A   Clear
10:15 PM 70.2 °F 45.7 °F 41% 29.91 in 10.0 mi SE 11.5 mph - N/A   Clear
10:35 PM 69.4 °F 46.4 °F 44% 29.92 in 10.0 mi SE 11.5 mph - N/A   Clear
10:55 PM 68.0 °F 47.1 °F 47% 29.93 in 10.0 mi SE 13.8 mph - N/A   Clear
11:15 PM 67.3 °F 48.2 °F 50% 29.93 in 10.0 mi SE 12.7 mph - N/A   Clear
11:35 PM 68.0 °F 48.6 °F 50% 29.93 in 10.0 mi SE 13.8 mph - N/A   Clear
11:55 PM 67.3 °F 48.6 °F 51% 29.93 in 10.0 mi SE 16.1 mph - N/A   Clear